Location: Huesca
(42.1318°N, 0.4078°W)
Time: 10:46:30
(UTC+02:00)

Explorer 7 - Visible Passes

Search period start: 15 July 2024 00:00
Search period end: 25 July 2024 00:00
Orbit: 465 x 619 km, 50.3° (Epoch: 14 July)

Date Brightness Start Highest point End Pass type
(mag) Time Alt. Az. Time Alt. Az. Time Alt. Az.
15 Jul 9.5 02:42:17 13° E 02:42:17 13° E 02:42:59 10° E visible
15 Jul 6.9 04:17:45 45° WSW 04:19:06 90° SSW 04:23:37 10° ENE visible
15 Jul 8.4 05:55:06 10° W 05:59:13 33° NNW 06:03:14 10° NE visible
16 Jul 9.3 02:34:15 15° E 02:34:15 15° E 02:35:16 10° E visible
16 Jul 7.1 04:09:43 45° WSW 04:11:03 75° NNW 04:15:33 10° ENE visible
16 Jul 8.6 05:47:13 10° WNW 05:51:16 31° N 05:55:13 10° NE visible
17 Jul 9.2 02:26:08 17° E 02:26:08 17° E 02:27:25 10° ENE visible
17 Jul 7.3 04:01:36 41° W 04:02:58 63° NNW 04:07:27 10° NE visible
17 Jul 8.7 05:39:17 10° WNW 05:43:17 29° N 05:47:11 10° NE visible
18 Jul 9.0 02:17:57 19° E 02:17:57 19° E 02:19:28 10° ENE visible
18 Jul 7.6 03:53:25 36° W 03:54:54 53° NNW 03:59:19 10° NE visible
18 Jul 8.8 05:31:20 10° WNW 05:35:17 28° N 05:39:09 10° NE visible
19 Jul 8.9 02:09:43 22° ENE 02:09:43 22° ENE 02:11:25 10° ENE visible
19 Jul 7.9 03:45:09 31° WNW 03:46:49 46° NNW 03:51:10 10° NE visible
19 Jul 8.9 05:23:20 10° WNW 05:27:17 28° N 05:31:07 10° ENE visible
20 Jul 8.8 02:01:22 25° ENE 02:01:22 25° ENE 02:03:18 10° ENE visible
20 Jul 8.2 03:36:48 27° WNW 03:38:43 40° NNW 03:43:00 10° NE visible
20 Jul 8.9 05:15:17 10° WNW 05:19:15 28° N 05:23:06 10° ENE visible
21 Jul 8.6 01:52:56 28° ENE 01:52:56 28° ENE 01:55:08 10° ENE visible
21 Jul 8.4 03:28:22 23° WNW 03:30:37 36° NNW 03:34:49 10° NE visible
21 Jul 8.9 05:07:12 10° WNW 05:11:11 29° N 05:15:04 10° ENE visible
22 Jul 8.4 01:44:23 33° ENE 01:44:23 33° ENE 01:46:57 10° ENE visible
22 Jul 8.6 03:19:48 18° WNW 03:22:29 33° NNW 03:26:37 10° NE visible
22 Jul 8.9 04:59:03 10° NW 05:03:05 30° N 05:07:01 10° ENE visible
23 Jul 8.1 01:35:40 40° NE 01:35:40 40° NE 01:38:42 10° NE visible
23 Jul 8.8 03:11:04 14° WNW 03:14:22 31° N 03:18:26 10° NE visible
23 Jul 8.8 04:50:51 10° NW 04:54:57 32° N 04:58:57 10° ENE visible
24 Jul 7.7 01:26:35 53° NNE 01:26:35 53° NNE 01:30:24 10° NE visible
24 Jul 8.9 03:02:11 10° WNW 03:06:13 30° N 03:10:14 10° NE visible
24 Jul 8.7 04:42:37 10° NW 04:46:48 34° NNE 04:50:53 10° E visible
24 Jul 9.0 23:41:15 16° ENE 23:41:15 16° ENE 23:42:13 10° ENE visible
